Home > Weather > Vitebsk > Past weeks

Flag for Belarus Weather for the Past 2 Weeks in Vitebsk, Belarus

Now
63 °F

Partly sunny.


Feels Like: 63 °F
Forecast: 44 / 65 °F
Wind: 3 mph from Northeast

Location: Vitebsk

Current Time: May 2, 2016 at 4:44:17 PM

Latest Report: May 2, 2016 at 4:00 PM


Visibility: N/A

Pressure: 30.18 "Hg

Humidity: 45%

Dew Point: 41 °F

Location of VitebskLocation

Historic Weather in Vitebsk — Graph

°F

Vitebsk Temperature Yesterday

Maximum temperature yesterday: 61 °F (at 3:00 PM)
Minimum temperature yesterday: 50 °F (at 8:00 AM)
Average temperature yesterday: 58 °F

High & Low Weather Summary for the Past Weeks

 TemperatureHumidityPressure
High63 °F (Apr 25, 4:00 PM)100% (Apr 22, 8:00 AM)30.27 "Hg (Apr 22, 8:00 AM)
Low32 °F (Apr 22, 8:00 AM)34% (Apr 30, 5:00 PM)29.45 "Hg (Apr 26, 4:00 PM)
Average48 °F71%29.87 "Hg
* Reported Apr 17 3:00 PM — May 2 3:30 PM, Vitebsk, Weather by CustomWeather, © 2016

Note: Actual official high and low records may vary slightly from our data, if they occured in-between our weather recording intervals... More about our weather records

Advertising

Vitebsk Weather History for the Previous 24 Hours

Scroll right to see more
 ConditionsComfort  
Time TempWeatherWind HumidityBarometerVisibility
3:30 PM
Mon, May 2
61 °FPartly sunny.6 mph52%30.18 "HgN/A
3:00 PM61 °FPartly sunny.6 mph52%30.21 "Hg6 mi
2:30 PM61 °FPartly sunny.No wind52%30.21 "Hg6 mi
2:00 PM61 °FPartly sunny.6 mph52%30.21 "Hg6 mi
1:30 PM61 °FPartly sunny.3 mph52%30.21 "Hg6 mi
1:00 PM61 °FPartly sunny.3 mph52%30.21 "Hg6 mi
12:00 PM57 °FScattered clouds.3 mph63%30.24 "Hg5 mi
11:00 AM55 °FScattered clouds.3 mph67%30.24 "Hg4 mi
10:00 AM54 °FPartly sunny.3 mph77%30.24 "Hg4 mi
9:00 AM54 °FScattered clouds.No wind82%30.24 "Hg4 mi
8:00 AM52 °FScattered clouds.No wind82%30.24 "Hg4 mi
7:00 AM50 °FScattered clouds.No wind88%30.24 "Hg4 mi
6:00 AM48 °FFog.No wind87%30.24 "Hg3 mi
7:00 PM
Sun, May 1
61 °FPartly sunny.1 mph45%30.24 "HgN/A
6:00 PM61 °FScattered clouds.1 mph42%30.24 "HgN/A
5:00 PM61 °FScattered clouds.1 mph45%30.24 "HgN/A
4:30 PM61 °FScattered clouds.1 mph45%30.24 "HgN/A
4:00 PM61 °FScattered clouds.1 mph45%30.24 "HgN/A
Weather by CustomWeather, © 2016

See weather overviewHow to use our weather pages